This is the latest recevied weather packets stored in our database for station/object SQ5LTL-2. If no packets are shown the sender has not sent any weather packets the latest 10 day(s).
| Time | Temp. | Humidity | Pressure | Rain* | Wind** | Luminosity | Snow |
|---|---|---|---|---|---|---|---|
| 1777739431 | 21.67° C | 38% | 1021.3 hPa | 0 mm | - | 33 W/m² | - |
| 1777739130 | 21.67° C | 37% | 1021.4 hPa | 0 mm | - | 38 W/m² | - |
| 1777738528 | 22.22° C | 36% | 1021.3 hPa | 0 mm | - | 37 W/m² | - |
| 1777738226 | 22.22° C | 36% | 1021.4 hPa | 0 mm | - | 44 W/m² | - |
| 1777737923 | 22.78° C | 36% | 1021.4 hPa | 0 mm | - | 46 W/m² | - |
| 1777737623 | 22.78° C | 35% | 1021.6 hPa | 0 mm | - | 45 W/m² | - |
| 1777737322 | 22.78° C | 35% | 1021.5 hPa | 0 mm | - | 54 W/m² | - |
| 1777737019 | 22.78° C | 34% | 1021.6 hPa | 0 mm | - | 85 W/m² | - |
| 1777736719 | 23.33° C | 34% | 1021.7 hPa | 0 mm | - | 126 W/m² | - |
| 1777736416 | 23.33° C | 34% | 1021.7 hPa | 0 mm | - | 134 W/m² | - |
| 1777736134 | 23.33° C | 35% | 1021.8 hPa | 0 mm | - | 135 W/m² | - |
| 1777735833 | 22.78° C | 35% | 1021.8 hPa | 0 mm | - | 139 W/m² | - |
| 1777735532 | 22.78° C | 35% | 1021.8 hPa | 0 mm | - | 148 W/m² | - |
| 1777735230 | 23.33° C | 35% | 1022 hPa | 0 mm | - | 157 W/m² | - |
| 1777734929 | 23.33° C | 35% | 1021.9 hPa | 0 mm | - | 170 W/m² | - |
| 1777734627 | 23.33° C | 35% | 1021.9 hPa | 0 mm | - | 182 W/m² | - |
| 1777734326 | 23.33° C | 35% | 1022 hPa | 0 mm | - | 193 W/m² | - |
| 1777734024 | 22.78° C | 34% | 1022.2 hPa | 0 mm | - | 203 W/m² | - |
| 1777733723 | 22.78° C | 36% | 1022.2 hPa | 0 mm | - | 212 W/m² | - |
| 1777733421 | 22.78° C | 35% | 1022.2 hPa | 0 mm | - | 219 W/m² | - |
| 1777733121 | 22.78° C | 35% | 1022.2 hPa | 0 mm | - | 227 W/m² | - |
| 1777732820 | 23.33° C | 35% | 1022.4 hPa | 0 mm | - | 240 W/m² | - |
| 1777732517 | 23.33° C | 34% | 1022.3 hPa | 0 mm | - | 247 W/m² | - |
| 1777732216 | 23.33° C | 35% | 1022.4 hPa | 0 mm | - | 252 W/m² | - |
| 1777731936 | 22.78° C | 36% | 1022.5 hPa | 0 mm | - | 257 W/m² | - |
* Rain latest hour (hover to see other rain measurements)
** Current wind speed in m/s (hover to see current wind gust speed)